Regional Weather Roundup
Issued by NWS

Home | Current Version | Previous Version | Graphics & Text | Print | Product List | Glossary On
Versions: 1 2 3 4 5 6 7 8 9 10 11 12 13 14 15 16 17 18 19 20 21 22 23 24 25 26 27 28 29 30 31 32 33 34 35 36 37 38 39 40 41 42 43 44 45 46 47 48 49 50
000
ASUS43 KBIS 140159
RWRND

NORTH DAKOTA REGIONAL WEATHER ROUNDUP
NATIONAL WEATHER SERVICE BISMARCK ND
900 PM CDT SUN JUL 13 2014

NOTE: "FAIR" INDICATES FEW OR NO CLOUDS BELOW 12,000 FEET WITH NO
SIGNIFICANT WEATHER AND/OR OBSTRUCTIONS TO VISIBILITY.


NDZ001>003-009>011-017-140300-
NORTHWEST NORTH DAKOTA

CITY           SKY/WX    TMP DP  RH WIND       PRES   REMARKS
WILLISTON      CLEAR     69  42  37 N16       30.14R
MINOT          MOCLDY    63  46  54 NW14      30.07R
$$

NDZ018>021-031>035-040>046-140300-
SOUTHWEST NORTH DAKOTA

CITY           SKY/WX    TMP DP  RH WIND       PRES   REMARKS
BISMARCK       CLEAR     69  41  36 NW16G25   30.06R
GARRISON         N/A     65  47  52 N14       30.08R
HETTINGER ARPT CLEAR     65  46  50 NW6       30.12S
$$

NDZ004>008-012>016-024-026-027-054-140300-
NORTHEAST NORTH DAKOTA

CITY           SKY/WX    TMP DP  RH WIND       PRES   REMARKS
GRAND FORKS    MOCLDY    61  48  62 NW9       29.93S
DEVILS LAKE    CLOUDY    63  45  51 NW14G26   29.99R
$$

NDZ022-023-025-028>030-036>039-047>053-140300-
SOUTHEAST NORTH DAKOTA

CITY           SKY/WX    TMP DP  RH WIND       PRES   REMARKS
FARGO          CLOUDY    67  46  47 NW12G22   29.94R
$$




USA.gov is the U.S. government's official web portal to all federal, state and local government web resources and services.